[[[{"header":{"parameterUnit":"kt","parameterCategory":2,"dx":1,"dy":1,"la1":30.253999710083008,"la2":30.299108505249023,"lo1":-89.0895004272461,"lo2":-89.04439544677734,"nx":28,"ny":28,"refTime":"2022-11-01T21:00:00:Z","depth":0,"parameterNumber":1,"parameterNumberName":"U-component_of_WINDS"},"data":[-6.9248,-6.931,-6.9271,-6.9326,-6.9299,-6.9331,-6.933,-6.9325,-6.9311,-6.9348,-6.9362,-6.9329,-6.9301,-6.9312,-6.9327,-6.9313,-6.9325,-6.938,-6.9354,-6.914,-6.9108,-6.9078,-6.906,-6.9382,-6.9382,-6.9582,-6.9584,-6.9585,-6.9112,-6.9087,-6.9101,-6.9088,-6.9102,-6.9027,-6.9011,-6.9029,-6.9059,-6.9041,-6.905,-6.9078,-6.9096,-6.9046,-6.9057,-6.9091,-6.9056,-6.9097,-6.9096,-6.9094,-6.8863,-6.8845,-6.9126,-6.9126,-6.9126,-6.9126,-6.9126,-6.9125,-6.8854,-6.8891,-6.8857,-6.8871,-6.8853,-6.8845,-6.8875,-6.883,-6.8844,-6.8845,-6.8791,-6.8825,-6.8799,-6.8788,-6.8774,-6.8802,-6.8749,-6.878,-6.8789,-6.88,-6.882,-6.8551,-6.8801,-6.88,-6.8799,-6.8798,-6.8797,0,-6.8652,-6.8615,-6.8622,-6.862,-6.8627,-6.862,-6.8606,-6.8623,-6.8526,-6.8542,-6.8561,-6.8566,-6.8576,-6.8592,-6.8589,-6.8566,-6.8489,-6.8473,-6.8496,-6.8526,-6.8557,-6.8548,-6.8181,-6.8466,-6.8463,-6.8461,-6.8459,-6.8458,-6.8393,-6.8437,-6.8377,-6.8389,-6.8368,-6.8387,-6.839,-6.8299,-6.8307,-6.8277,-6.8315,-6.8327,-6.8331,-6.8371,-6.8316,-6.8323,-6.8286,-6.8401,-6.8286,-6.8315,-6.8295,-6.8295,-6.8302,-6.8426,-6.843,-6.8433,-6.8436,0,-6.8253,-6.8178,-6.8231,-6.8164,-6.8149,-6.8202,-6.8146,-6.8178,-6.8126,-6.8165,-6.8168,-6.8089,-6.8109,-6.8033,-6.8039,-6.8,-6.8099,-6.8059,-6.8111,-6.81,-6.82,-6.8194,-6.8524,-6.8565,-6.8226,-6.8229,-6.8232,0,-6.8004,-6.8063,-6.7948,-6.7983,-6.8049,-6.7952,-6.8021,-6.7982,-6.795,-6.7979,-6.7874,-6.7904,-6.7799,-6.782,-6.7761,-6.7826,-6.7825,-6.7801,-6.7785,-6.7812,-6.7816,-6.7816,-6.7803,-6.7738,-6.7737,-6.7735,-6.7734,0,-6.7794,-6.7797,-6.7852,-6.784,-6.7771,-6.78,-6.7773,-6.7733,-6.7735,-6.7725,-6.7726,-6.7722,-6.772,-6.7722,-6.7645,-6.7571,-6.772,-6.7601,-6.7695,-6.7698,-6.7733,-6.7732,-6.8042,-6.7732,-6.7731,-6.7731,-6.773,0,-6.7579,-6.7566,-6.7653,-6.7594,-6.7598,-6.7633,-6.762,-6.7631,-6.7597,-6.756,-6.755,-6.747,-6.7513,-6.7404,-6.7465,-6.7391,-6.7398,-6.7376,-6.7381,-6.7382,-6.7261,-6.7452,-6.7751,-6.7782,-6.7384,-6.7381,-6.7379,0,-6.7364,-6.7428,-6.7341,-6.7426,-6.7444,-6.7324,-6.7361,-6.733,-6.7283,-6.7295,-6.7242,-6.7255,-6.7155,-6.7148,-6.7188,-6.7136,-6.7232,-6.712,-6.7148,-6.715,-6.7166,-6.7439,-6.7504,-6.7694,-6.734,-6.7344,-6.7347,0,-6.7186,-6.7092,-6.7112,-6.7095,-6.7033,-6.7045,-6.7087,-6.7075,-6.7088,-6.706,-6.7097,-6.7108,-6.7036,-6.7023,-6.6953,-6.7,-6.7165,-6.6914,-6.6912,-6.6968,-6.7311,-6.7375,-6.7407,-6.7109,-6.7114,-6.7117,-6.7317,0,-6.689,-6.6906,-6.6956,-6.6913,-6.6909,-6.6952,-6.6861,-6.6869,-6.6803,-6.6749,-6.6796,-6.6744,-6.6731,-6.6742,-6.6675,-6.6803,-6.677,-6.6689,-6.6576,-6.6754,-6.6818,-6.6843,-6.649,-6.6486,-6.6482,-6.648,0,0,-6.6706,-6.6725,-6.6622,-6.6654,-6.6644,-6.6512,-6.6568,-6.6542,-6.6493,-6.6491,-6.6427,-6.6436,-6.6395,-6.6462,-6.651,-6.6502,-6.6519,-6.6456,-6.6669,-6.669,-6.671,-6.678,-6.6807,-6.6474,-6.6473,-6.6471,-6.647,0,-6.6577,-6.6532,-6.6585,-6.6553,-6.6501,-6.6438,-6.6451,-6.6376,-6.6342,-6.6382,-6.6273,-6.629,-6.6293,-6.6268,-6.6256,-6.6447,-6.6365,-6.6449,-6.6585,-6.6639,-6.6665,-6.6687,-6.6762,-6.6789,-6.6462,-6.6463,-6.6463,0,-6.6388,-6.6331,-6.6343,-6.6306,-6.627,-6.6288,-6.6147,-6.6169,-6.6182,-6.6033,-6.6074,-6.6033,-6.5987,-6.6058,-6.6086,-6.6028,-6.6231,-6.6145,-6.6164,-6.6165,-6.6213,-6.6244,-6.6272,-6.5907,-6.5906,-6.5904,0,0,-6.629,-6.63,-6.6205,-6.627,-6.6256,-6.6159,-6.6157,-6.6088,-6.6046,-6.603,-6.5972,-6.5938,-6.594,-6.5944,-6.5939,-6.6029,-6.6014,-6.6081,-6.6107,-6.6129,-6.6143,-6.6196,-6.6227,-6.5899,-6.5898,-6.5898,0,0,-6.6242,-6.6134,-6.6071,-6.6133,-6.6098,-6.6008,-6.6054,-6.5975,-6.596,-6.5944,-6.5828,-6.5814,-6.5877,-6.5838,-6.5772,-6.5899,-6.5788,-6.5802,-6.5921,-6.5952,-6.5978,-6.5987,-6.5619,0,0,0,0,0,-6.6059,-6.6147,-6.6092,-6.6087,-6.6036,-6.604,-6.6033,-6.5937,-6.5863,-6.5903,-6.5842,-6.575,-6.578,-6.5718,-6.5717,-6.5792,-6.5823,-6.5837,-6.5849,-6.6023,-6.6057,-6.6086,0,0,0,0,0,0,-6.6057,-6.6052,-6.6089,-6.6005,-6.5992,-6.6035,-6.5889,-6.5866,-6.5857,-6.5839,-6.5765,-6.5748,-6.5668,-6.5712,-6.5713,-6.5786,-6.5618,-6.5829,-6.584,-6.585,-6.6035,-6.6063,-6.6087,0,0,0,0,0,-6.6054,-6.605,-6.5991,-6.6002,-6.5992,-6.5887,-6.5885,-6.5864,-6.5855,-6.5759,-6.5739,-6.5784,-6.5672,-6.5666,-6.5712,-6.5788,-6.5617,-6.5618,-6.5836,-6.5845,-6.5853,-6.6049,0,0,0,0,0,0,-6.6052,-6.6032,-6.5987,-6.598,-6.596,-6.5882,-6.5866,-6.5863,-6.5774,-6.5755,-6.5772,-6.5759,-6.5676,-6.5671,-6.5667,-6.5795,-6.5616,-6.5617,-6.5617,-6.5843,-6.585,-6.5856,0,0,0,0,0,0,-6.6033,-6.6027,-6.5983,-6.5935,-6.5921,-6.5879,-6.5865,-6.5888,-6.5775,-6.5792,-6.5778,-6.5768,-6.5683,-6.5675,-6.5671,-6.5711,-6.5615,-6.5616,-6.5616,-6.5617,-6.5848,-6.5854,0,0,0,0,0,0,-6.6029,-6.6024,-6.5936,-6.5926,-6.5914,-6.5831,-6.5897,-6.585,-6.5732,-6.5798,-6.5719,-6.5713,-6.569,-6.5684,-6.5675,-6.5717,-6.5713,-6.5616,-6.5616,-6.5616,-6.5616,0,0,0,0,0,0,0,-6.6026,-6.6084,-6.6027,-6.5919,-6.5908,-6.5918,-6.5916,-6.5915,-6.5731,-6.5725,-6.572,-6.5715,-6.5612,-6.5613,-6.5613,-6.5722,0,0,-6.5615,-6.5616,0,0,0,0,0,0,0,0,-6.6084,-6.6084,-6.6027,-6.6025,-6.6024,-6.5918,-6.5917,-6.5915,-6.573,-6.5726,-6.5721,-6.5717,-6.5612,-6.5613,-6.5613,0,0,0,0,0,0,0,0,0,0,0,0,0,0,0,-6.6026,-6.6025,0,-6.5918,-6.5917,-6.5915,-6.5729,-6.5726,-6.5722,-6.5719,-6.5613,-6.5613,-6.5613,0,0,0,0,0,0,0,0,0,0,0,0,0,0,0,0,0,0,0,0,0,0,0,0,0,0,0,0,0,0,0,0,0,0,0,0,0,0,0,0,0,0,0,0,0,0,0,0,0,0,0,0,0,0,0,0,0,0,0,0,0,0,0,0,0,0,0,0,0]}],[{"header":{"parameterUnit":"kt","parameterCategory":2,"dx":1,"dy":1,"la1":30.253999710083008,"la2":30.299108505249023,"lo1":-89.0895004272461,"lo2":-89.04439544677734,"nx":28,"ny":28,"refTime":"2022-11-01T21:00:00:Z","depth":0,"parameterNumber":2,"parameterNumberName":"V-component_of_WINDS"},"data":[0.6674,0.6601,0.6611,0.6532,0.6527,0.6473,0.6457,0.6436,0.6422,0.6357,0.6322,0.6322,0.6309,0.6267,0.6226,0.6227,0.6206,0.6175,0.618,0.6319,0.6338,0.6357,0.6374,0.6172,0.6172,0.6033,0.6031,0.603,0.6777,0.6773,0.6734,0.6703,0.6669,0.6707,0.6684,0.6652,0.6602,0.6584,0.6549,0.6492,0.6447,0.6445,0.6402,0.6365,0.6377,0.6352,0.6352,0.6348,0.6499,0.6518,0.6343,0.6343,0.6343,0.6343,0.6343,0.6343,0.6966,0.6922,0.6909,0.6867,0.6854,0.6833,0.6791,0.6794,0.6754,0.6713,0.6731,0.6673,0.6655,0.6606,0.6592,0.6545,0.6574,0.6547,0.6539,0.6531,0.652,0.6714,0.6539,0.6539,0.654,0.654,0.6541,0,0.7107,0.7118,0.7081,0.7047,0.7017,0.6991,0.6968,0.6943,0.6967,0.6933,0.6883,0.6856,0.6801,0.6753,0.6715,0.6704,0.6733,0.6739,0.6719,0.6706,0.6701,0.6699,0.694,0.6742,0.6743,0.6745,0.6745,0.6746,0.7294,0.7242,0.7233,0.7206,0.7196,0.7151,0.7126,0.7151,0.7123,0.7097,0.7055,0.7009,0.6973,0.689,0.6889,0.6846,0.6858,0.6782,0.6851,0.6844,0.6851,0.6852,0.6846,0.6765,0.6763,0.6761,0.6759,0,0.7398,0.7414,0.7336,0.7331,0.7329,0.7272,0.7266,0.7222,0.7229,0.7168,0.7155,0.7163,0.7112,0.7124,0.7068,0.7075,0.6976,0.6993,0.6983,0.6985,0.6914,0.6919,0.669,0.666,0.6875,0.6873,0.6871,0,0.7561,0.7492,0.7519,0.7473,0.7396,0.7424,0.7346,0.7344,0.7329,0.7281,0.732,0.7274,0.7297,0.7252,0.7262,0.7184,0.7175,0.7173,0.7175,0.7166,0.7166,0.7145,0.7152,0.7189,0.719,0.7191,0.7192,0,0.7718,0.7652,0.7578,0.7565,0.7551,0.7515,0.7507,0.749,0.7464,0.7432,0.7415,0.7376,0.7352,0.732,0.7333,0.738,0.724,0.7306,0.7238,0.7237,0.7201,0.7201,0.7002,0.7193,0.7194,0.7194,0.7194,0,0.785,0.7821,0.7712,0.7701,0.7682,0.7633,0.7596,0.7558,0.7536,0.754,0.7515,0.754,0.7476,0.7541,0.7451,0.7508,0.7483,0.7477,0.7472,0.7461,0.7532,0.7411,0.7225,0.7203,0.746,0.7462,0.7464,0,0.8023,0.7918,0.7941,0.7836,0.7788,0.7835,0.7781,0.7761,0.7762,0.772,0.772,0.7671,0.7722,0.7707,0.7663,0.7659,0.7585,0.767,0.7601,0.7599,0.7601,0.7432,0.7398,0.7266,0.7492,0.7489,0.7487,0,0.8158,0.8143,0.8123,0.8108,0.8088,0.8048,0.7987,0.7945,0.7916,0.789,0.7836,0.7769,0.7804,0.7779,0.7794,0.7746,0.7636,0.7789,0.7788,0.7757,0.7509,0.7478,0.7455,0.7656,0.7653,0.765,0.751,0,0.8347,0.8297,0.8245,0.821,0.8182,0.8118,0.8131,0.81,0.8118,0.8119,0.8042,0.8026,0.798,0.796,0.7975,0.7864,0.7883,0.792,0.7978,0.7869,0.7822,0.7804,0.8047,0.8049,0.805,0.8052,0,0,0.8506,0.8434,0.8459,0.8401,0.8377,0.8425,0.8354,0.8337,0.8299,0.8281,0.8316,0.8217,0.8201,0.8104,0.8072,0.8054,0.8033,0.807,0.7922,0.7908,0.7894,0.7845,0.7825,0.8054,0.8055,0.8055,0.8056,0,0.8577,0.8567,0.8498,0.8483,0.846,0.8465,0.8449,0.8433,0.843,0.8355,0.839,0.8345,0.8265,0.8243,0.8221,0.8085,0.8111,0.8071,0.7992,0.7937,0.7921,0.7906,0.7854,0.7836,0.806,0.8059,0.8059,0,0.8709,0.8699,0.8668,0.862,0.8605,0.8554,0.8622,0.8565,0.8527,0.8576,0.8499,0.8492,0.8463,0.8372,0.8331,0.836,0.818,0.824,0.823,0.8224,0.8171,0.8151,0.8133,0.8364,0.8365,0.8366,0,0,0.8767,0.8721,0.8716,0.8636,0.8624,0.8631,0.8605,0.8619,0.8596,0.8585,0.8575,0.8548,0.8502,0.847,0.8426,0.8325,0.8318,0.8277,0.8262,0.8251,0.8238,0.8181,0.8162,0.837,0.837,0.837,0,0,0.8794,0.8786,0.8809,0.8718,0.8696,0.8683,0.8632,0.8659,0.8622,0.863,0.8649,0.8642,0.8557,0.8546,0.8597,0.8446,0.8505,0.8493,0.8455,0.8437,0.8423,0.8425,0.8659,0,0,0,0,0,0.8871,0.8788,0.8809,0.8796,0.8733,0.8672,0.8664,0.868,0.8721,0.8681,0.8677,0.8707,0.8578,0.8624,0.8608,0.8549,0.842,0.8411,0.8402,0.833,0.8311,0.8295,0,0,0,0,0,0,0.8866,0.885,0.8811,0.8795,0.8781,0.8676,0.8749,0.8751,0.8726,0.8733,0.8708,0.8707,0.8716,0.8632,0.8618,0.8562,0.8664,0.8416,0.8409,0.8402,0.8324,0.8308,0.8295,0,0,0,0,0,0.8862,0.8849,0.8745,0.8796,0.8784,0.8785,0.8753,0.8755,0.8735,0.8727,0.8727,0.8749,0.8715,0.8704,0.8624,0.8568,0.8673,0.8668,0.8411,0.8405,0.84,0.8316,0,0,0,0,0,0,0.8859,0.885,0.8743,0.874,0.8829,0.8791,0.8786,0.8758,0.8731,0.873,0.877,0.8776,0.8712,0.8704,0.8696,0.8569,0.8681,0.8676,0.8673,0.8407,0.8402,0.8398,0,0,0,0,0,0,0.8857,0.8847,0.8741,0.8782,0.8783,0.8796,0.8792,0.8726,0.873,0.8775,0.8779,0.8773,0.8724,0.8704,0.8698,0.8594,0.8687,0.8682,0.8679,0.8677,0.8403,0.8399,0,0,0,0,0,0,0.8853,0.8844,0.8783,0.8784,0.8785,0.875,0.8738,0.8672,0.8768,0.8775,0.8777,0.8781,0.8722,0.8716,0.8699,0.8597,0.8595,0.8687,0.8684,0.8681,0.868,0,0,0,0,0,0,0,0.8849,0.8905,0.8762,0.8785,0.8787,0.871,0.8709,0.8708,0.8769,0.8772,0.8776,0.8779,0.8717,0.8711,0.8705,0.86,0,0,0.8688,0.8685,0,0,0,0,0,0,0,0,0.8909,0.8906,0.8762,0.8762,0.8761,0.871,0.8709,0.8708,0.8769,0.8772,0.8775,0.8778,0.8715,0.8711,0.8706,0,0,0,0,0,0,0,0,0,0,0,0,0,0,0,0.8762,0.8762,0,0.871,0.8709,0.8708,0.877,0.8772,0.8774,0.8776,0.8714,0.871,0.8706,0,0,0,0,0,0,0,0,0,0,0,0,0,0,0,0,0,0,0,0,0,0,0,0,0,0,0,0,0,0,0,0,0,0,0,0,0,0,0,0,0,0,0,0,0,0,0,0,0,0,0,0,0,0,0,0,0,0,0,0,0,0,0,0,0,0,0,0,0]}]]]